Location: *
(60.1759°S, 155.0663°W)
Time: 14:31:06
(UTC+00:00)

CZ-2C R/B - Pass Details

Date: 17 September 2019
Orbit: 669 x 783 km, 98.1° (Epoch: 21 October)

Event Time Altitude Azimuth Distance (km) Brightness Sun altitude
Exits shadow 13:16:35 - 24° (NNE) 3,176 5.5 -22.5°
Reaches altitude 10° 13:18:38 10° 24° (NNE) 2,362 4.9 -22.3°
Maximum altitude 13:23:53 81° 110° (ESE) 810 2.6 -21.8°
Drops below altitude 10° 13:29:07 10° 196° (SSW) 2,352 5.3 -21.3°
Sets 13:31:25 0° 196° (SSW) 3,271 6.0 -21.0°
